Regional Weather Roundup
Issued by NWS

Home | Current Version | Previous Version | Text Only | Print | Product List | Glossary On
Versions: 1 2 3 4 5 6 7 8 9 10 11 12 13 14 15 16 17 18 19 20 21 22 23 24 25 26 27 28 29 30 31 32 33 34 35 36 37 38 39 40 41 42 43 44 45 46 47 48 49 50
800
ASUS43 KDMX 252208
RWRIA

WEATHER ROUNDUP FOR IOWA
NATIONAL WEATHER SERVICE DES MOINES IA
500 PM CDT SUN SEP 25 2016

NOTE: "FAIR" INDICATES FEW OR NO CLOUDS BELOW 12,000 FEET WITH NO
SIGNIFICANT WEATHER AND/OR OBSTRUCTIONS TO VISIBILITY.

* - THESE STATIONS ARE NOT NWS STATIONS...THUS NOT UNDER NWS
QUALITY CONTROL.  THEY ALSO DO NOT REPORT WEATHER SUCH
AS PRECIPITATION OR FOG.

IAZ001>003-012>014-020>022-031>034-043>046-252300-
   NORTHWEST IOWA

CITY           SKY/WX    TMP DP  RH WIND       PRES   REMARKS
CARROLL *      CLOUDY    64  48  55 NW14G25   30.09S
CHEROKEE *     PTSUNNY   64  49  56 NW10G22   30.08S
DENISON *      CLOUDY    64  48  55 NW12G23   30.08F
LE MARS *      MOSUNNY   68  46  45 NW14G23   30.08F
ORANGE CITY *  MOSUNNY   66  46  48 NW17G28   30.07S
SHELDON *      PTSUNNY   66  46  48 NW16G24   30.05S
SIOUX CITY     PTSUNNY   70  46  42 NW21G35   30.07F
SPENCER        CLOUDY    62  49  62 NW16G25   30.06S
STORM LAKE *   SUNNY     64  48  55 NW13G21   30.08S
$$

IAZ055>058-069>071-079>083-090>094-252300-
   SOUTHWEST IOWA

CITY           SKY/WX    TMP DP  RH WIND       PRES   REMARKS
ATLANTIC *     PTSUNNY   66  50  55 NW14      30.11R
AUDUBON *      CLOUDY    64  50  59 NW10G20   30.11S
CLARINDA *       N/A     72  48  43 MISG      30.12S
COUNCIL BLFS * PTSUNNY   68  48  49 NW15G24   30.12R
CRESTON *      CLOUDY    66  50  55 NW23G29   30.11R
HARLAN  *      CLOUDY    66  48  52 NW17G25   30.14S
LAMONI         MOSUNNY   66  53  63 W10       30.09S
RED OAK *      MOSUNNY   70  48  46 NW15G25   30.11S
SHENANDOAH *   MOSUNNY   70  48  46 NW9G18    30.12S
$$

IAZ047>049-059>061-072>074-084-252300-
   CENTRAL IOWA

CITY           SKY/WX    TMP DP  RH WIND       PRES   REMARKS
AMES           CLOUDY    65  52  62 W14       30.06R
ANKENY *         N/A    N/A N/A N/A MISG        N/A
BOONE *        CLOUDY    64  48  55 W21G29    30.06R
CHARITON *       N/A     66  54  63 NW13      30.07S
DES MOINES     CLOUDY    68  50  52 NW17      30.05R
GRINNELL*      CLOUDY    66  52  60 W15       30.04S
KNOXVILLE *    CLOUDY    66  52  59 W13       30.04S
MARSHALLTOWN   CLOUDY    66  51  58 W22G30    30.02R
NEWTON *       PTSUNNY   66  50  55 W16G30    30.04S
PELLA *        CLOUDY    66  52  60 W10       30.06S
PERRY *        CLOUDY    65  48  54 W14G25    30.08R
$$

IAZ004>006-015-016-023>025-035-036-252300-
   NORTH CENTRAL IOWA

CITY           SKY/WX    TMP DP  RH WIND       PRES   REMARKS
ALGONA *       CLOUDY    61  52  72 W20G26    30.04R
CLARION *      CLOUDY    61  52  72 W18G26    30.04R
ESTHERVILLE    CLOUDY    60  51  72 NW16      30.03S
FORT DODGE *   CLOUDY    61  48  63 W13G23    30.07R
MASON CITY     CLOUDY    61  51  70 W18G29    30.02R
FOREST CITY *  CLOUDY    59  52  77 W16G23    30.01R
WEBSTER CITY * CLOUDY    63  52  67 NW16G25   30.03S
IOWA FALLS *   CLOUDY    65  50  58 W16G24    30.04S
$$

IAZ007>011-017>019-026>030-037>042-050>054-066-252300-
   NORTHEAST IOWA

CITY           SKY/WX    TMP DP  RH WIND       PRES   REMARKS
CEDAR RAPIDS   CLOUDY    66  54  65 W21G29    29.99R
CHARLES CITY * CLOUDY    66  48  52 W15G29    29.98S
CLINTON *      PTSUNNY   77  67  71 W14G23    29.93R
DECORAH *      CLOUDY    64  54  68 W8G17     29.94F
DUBUQUE        MOSUNNY   70  58  65 W17G28    29.95R
MONTICELLO *   MOSUNNY   70  55  60 W13G20    29.96R
OELWEIN *      CLOUDY    66  52  59 W15G21    29.98S
WATERLOO       CLOUDY    67  49  52 W22G30    29.97F
$$

IAZ064-065-067-068-078-252300-
   EAST CENTRAL IOWA

CITY           SKY/WX    TMP DP  RH WIND       PRES   REMARKS
DAVENPORT      CLOUDY    76  65  68 W13G22    29.94S
IOWA CITY      LGT RAIN  69  56  62 W15       30.01R
MT. PLEASANT * CLOUDY    72  56  57 W13G20    30.00R
MUSCATINE *    MOSUNNY   72  54  53 W17G23    29.98R
QUAD CITIES    CLOUDY    77  65  66 W13       29.93S
$$

IAZ062-063-075>077-085>089-095>099-252300-
   SOUTHEAST IOWA

CITY           SKY/WX    TMP DP  RH WIND       PRES   REMARKS
BURLINGTON     CLOUDY    75  65  70 W10       29.97F
FAIRFIELD *    CLOUDY    70  54  56 W16       30.02R
FORT MADISON *   N/A     75  64  69 W9G16     29.99S
KEOKUK *       CLOUDY    77  64  65 W12       29.99R
OSKALOOSA *      N/A     66  52  59 W17       30.05R
OTTUMWA        CLOUDY    66  52  60 W15G24    30.04R
WASHINGTON *     N/A    N/A N/A N/A MISG        N/A
$$

ABBREVIATIONS USED IN REMARKS
   TC - TEMPERATURES IN CELSIUS
  WCI - WIND CHILL INDEX
   HX - HEAT INDEX
  VSB - VISIBILITY
$$





USA.gov is the U.S. government's official web portal to all federal, state and local government web resources and services.